Location: Haram ta Haram Freeway
(35.0583°N, 51.4202°E)
Time: 03:27:23
(UTC+03:30)

IRIDIUM 33 DEB - Pass Details

Date: 04 December 2021
Orbit: 663 x 816 km, 86.4° (Epoch: 21 January)

Event Time Altitude Azimuth Distance (km) Brightness Sun altitude
Rises 05:59:23 0° 6° (N) 3,120 ? -11.6°
Reaches altitude 10° 06:01:51 10° 13° (NNE) 2,172 ? -11.1°
Maximum altitude 06:06:22 41° 84° (E) 991 ? -10.3°
Drops below altitude 10° 06:10:44 10° 155° (SSE) 2,093 ? -9.4°
Sets 06:13:04 0° 162° (SSE) 2,991 ? -9.0°
